FW9333 Weather Reports


time (UTC)temp
F
wind
direction
speed
knots
gust
knots
rain 1hr
in
rain 24hr
in
rain mn
in
humidity
%
barometer
mb
20260508033025 49 99 0.0 0.0 0.00 0.00 0.00 70 1013.5
20260508031530 49 99 0.0 0.0 0.00 0.00 0.00 69 1013.4
20260508030025 49 99 0.0 0.0 0.00 0.00 0.00 69 1013.3
20260508024539 50 99 0.0 0.0 0.00 0.00 0.00 67 1013.1
20260508023028 50 99 0.0 0.0 0.00 0.00 0.00 68 1013.0
20260508021524 50 99 0.0 0.0 0.00 0.00 0.00 69 1012.9
20260508020023 51 99 0.0 0.0 0.00 0.00 0.00 66 1012.7
20260508014541 51 99 0.0 0.0 0.00 0.00 0.00 66 1012.5
20260508013022 52 99 0.0 0.0 0.00 0.00 0.00 64 1012.3
20260508011522 52 99 0.0 0.0 0.00 0.00 0.00 63 1012.0
20260508010028 53 99 0.0 0.9 0.00 0.00 0.00 63 1011.8
20260508004524 54 99 0.0 0.9 0.00 0.00 0.00 59 1011.5
20260508003042 54 110 0.0 1.7 0.00 0.00 0.00 61 1011.2
20260508001518 55 110 0.0 0.0 0.00 0.00 0.00 59 1011.0
20260508000019 56 110 0.0 1.7 0.00 0.00 0.00 57 1010.7
20260507234517 57 106 0.0 0.9 0.00 0.00 0.00 59 1010.5
20260507233030 57 111 0.0 2.6 0.00 0.00 0.00 57 1010.4
20260507231519 58 142 0.0 3.5 0.00 0.00 0.00 53 1010.2
20260507230017 58 360 0.0 1.7 0.00 0.00 0.00 54 1010.1
20260507224517 58 130 0.0 3.5 0.00 0.00 0.00 53 1010.0
20260507223016 59 113 0.0 1.7 0.00 0.00 0.00 54 1009.9
20260507221515 59 123 0.0 0.9 0.00 0.00 0.00 55 1009.8
20260507220015 59 123 0.0 0.9 0.00 0.00 0.00 57 1009.7
20260507214514 59 123 0.0 2.6 0.00 0.00 0.00 50 1009.5
20260507213014 60 72 0.0 1.7 0.00 0.00 0.00 48 1009.5
20260507211514 61 79 0.0 2.6 0.00 0.00 0.00 49 1009.5
20260507210013 61 74 0.0 4.3 0.00 0.00 0.00 47 1009.4
20260507204512 61 99 0.0 7.0 0.00 0.00 0.00 46 1009.3
20260507203015 61 63 0.0 6.1 0.00 0.00 0.00 50 1009.5
20260507201510 61 86 0.9 6.1 0.00 0.00 0.00 45 1009.7
20260507200010 60 60 0.9 3.5 0.00 0.00 0.00 47 1009.6
20260507194507 60 126 0.9 2.6 0.00 0.00 0.00 51 1010.1
20260507193006 60 136 0.0 2.6 0.00 0.00 0.00 55 1010.2
20260507191509 61 76 0.0 1.7 0.00 0.00 0.00 51 1010.2
20260507190007 60 57 0.9 4.3 0.00 0.00 0.00 49 1010.2
20260507184511 61 186 0.0 4.3 0.00 0.00 0.00 51 1010.4
20260507183004 61 340 0.9 6.1 0.00 0.00 0.00 48 1010.3
20260507181503 61 46 0.0 1.7 0.00 0.00 0.00 54 1010.4
20260507180001 61 223 0.9 4.3 0.00 0.00 0.00 55 1010.4
20260507174600 60 56 0.0 2.6 0.00 0.02 0.00 51 1010.5
20260507173100 60 153 0.0 3.5 0.00 0.02 0.00 52 1010.9
20260507171559 60 33 0.9 2.6 0.00 0.02 0.00 50 1011.1
20260507170056 59 78 0.0 4.3 0.00 0.02 0.00 50 1011.3
20260507164553 59 84 0.0 2.6 0.00 0.02 0.00 56 1011.4
20260507163053 59 96 0.0 1.7 0.00 0.02 0.00 49 1011.5
20260507161550 61 148 0.0 3.5 0.00 0.02 0.00 56 1011.7
20260507160049 61 81 0.0 2.6 0.00 0.02 0.00 53 1011.9
20260507154548 62 92 0.0 3.5 0.00 0.09 0.00 54 1011.9
20260507153044 61 51 0.0 3.5 0.00 0.09 0.00 51 1012.0
20260507151544 59 139 0.0 1.7 0.00 0.09 0.00 60 1012.1
20260507150040 59 86 0.0 2.6 0.00 0.09 0.00 54 1012.3
20260507144539 59 32 0.0 2.6 0.00 0.09 0.00 65 1012.5
20260507143037 58 131 0.0 2.6 0.00 0.09 0.00 57 1012.6
20260507141536 58 9 0.0 2.6 0.00 0.09 0.00 59 1012.8
20260507140040 58 19 0.0 2.6 0.00 0.09 0.00 63 1013.1
20260507134530 56 46 0.0 0.0 0.00 0.09 0.00 66 1013.3
20260507133026 55 107 0.0 0.0 0.00 0.09 0.00 75 1013.4
20260507131533 53 78 0.0 0.0 0.00 0.09 0.00 81 1013.6
20260507130020 50 78 0.0 0.0 0.00 0.09 0.00 85 1013.4
20260507124520 47 103 0.0 0.0 0.00 0.11 0.00 88 1013.4
20260507123023 47 313 0.0 0.0 0.00 0.11 0.00 90 1013.5
20260507121518 46 313 0.0 0.0 0.00 0.11 0.00 90 1013.5
20260507120016 45 313 0.0 0.0 0.00 0.11 0.00 90 1013.5
20260507114515 44 313 0.0 0.0 0.00 0.12 0.00 89 1013.3
20260507113014 44 313 0.0 0.0 0.00 0.12 0.00 90 1013.2
20260507111513 44 313 0.0 0.0 0.00 0.12 0.00 89 1013.0
20260507110013 44 313 0.0 0.0 0.00 0.12 0.00 89 1012.9
20260507104510 43 131 0.0 0.0 0.00 0.24 0.00 89 1012.8
20260507103010 44 131 0.0 0.0 0.00 0.24 0.00 89 1012.7
20260507101509 44 131 0.0 0.0 0.00 0.24 0.00 88 1012.8
20260507100015 44 131 0.0 0.0 0.00 0.24 0.00 88 1012.7
20260507094502 45 131 0.0 0.0 0.00 0.44 0.00 88 1012.6
20260507093100 45 131 0.0 0.0 0.00 0.44 0.00 88 1012.5
20260507091605 46 131 0.0 0.0 0.00 0.44 0.00 87 1012.5
20260507090112 46 131 0.0 0.0 0.00 0.44 0.00 87 1012.5
20260507084557 46 131 0.0 0.0 0.00 0.45 0.00 86 1012.5
20260507083100 47 131 0.0 0.0 0.00 0.45 0.00 86 1012.5
20260507081557 47 131 0.0 0.0 0.00 0.45 0.00 86 1012.4
20260507080054 47 131 0.0 0.0 0.00 0.45 0.00 87 1012.5
20260507074551 48 131 0.0 0.0 0.00 0.45 0.00 87 1012.4
20260507073100 48 131 0.0 0.0 0.00 0.45 0.00 87 1012.3
20260507071548 48 131 0.0 0.0 0.00 0.45 0.00 88 1012.2
20260507070126 48 131 0.0 0.0 0.00 0.45 0.00 88 1012.1
20260507064550 48 131 0.0 0.0 0.00 0.45 0.00 88 1012.2
20260507063046 49 131 0.0 0.0 0.00 0.45 0.00 88 1012.3
20260507061544 49 131 0.0 0.0 0.00 0.45 0.00 89 1012.1
20260507060042 49 131 0.0 0.0 0.00 0.45 0.00 89 1012.1
20260507054546 50 131 0.0 0.0 0.00 0.45 0.00 89 1012.3
20260507053042 50 131 0.0 0.0 0.00 0.45 0.00 90 1012.4
20260507051537 50 131 0.0 0.0 0.00 0.45 0.00 90 1012.6
20260507050035 51 131 0.0 0.0 0.00 0.45 0.00 90 1012.6
20260507044544 51 131 0.0 0.0 0.00 0.45 0.00 90 1012.5
20260507043037 52 131 0.0 0.0 0.00 0.45 0.00 90 1012.4
20260507041529 52 131 0.0 0.0 0.00 0.45 0.00 91 1012.3
20260507040027 52 131 0.0 0.0 0.00 0.45 0.00 90 1012.3
20260507034527 52 131 0.0 0.0 0.00 0.45 0.45 91 1012.1